Home   Weather   Dallas   Past weeks

Flag for USA Past Weather in Dallas, Texas, USA — Yesterday and Last 2 Weeks

Now
59 °F

Passing clouds.


Feels Like: 56 °F
Forecast: 50 / 68 °F
Wind: 15 mph from North

Location: Dallas Love Field

Current Time: Feb 24, 2017 at 1:30:44 pm

Latest Report: Feb 24, 2017 at 12:53 pm


Visibility: 10 mi

Pressure: 29.87 "Hg

Humidity: 38%

Dew Point: 33 °F

Location of DallasLocation

Past Weather in Dallas — Graph

°F

Dallas Temperature Yesterday

Maximum temperature yesterday: 87 °F (at 12:53 pm)
Minimum temperature yesterday: 55 °F (at 5:53 am)
Average temperature yesterday: 73 °F

High & Low Weather Summary for the Past Weeks

 TemperatureHumidityPressure
High87 °F (Feb 11, 3:53 pm)100% (Feb 21, 4:27 am)30.39 "Hg (Feb 21, 4:27 am)
Low41 °F (Feb 16, 4:53 am)22% (Feb 23, 4:53 pm)29.46 "Hg (Feb 23, 4:53 pm)
Average62 °F63%29.93 "Hg
* Reported Feb 9 11:53 am — Feb 24 11:53 am, Dallas, Weather by CustomWeather, © 2017

Note: Actual official high and low records may vary slightly from our data, if they occured in-between our weather recording intervals... More about our weather records

Advertising

Dallas Weather History for the Previous 24 Hours

Scroll right to see more
 ConditionsComfort  
Time TempWeatherWind HumidityBarometerVisibility
11:53 am
Fri, Feb 24
57 °FPassing clouds.16 mph44%29.87 "Hg10 mi
10:53 am54 °FPassing clouds.16 mph51%29.87 "Hg10 mi
9:53 am52 °FScattered clouds.21 mph59%29.85 "Hg10 mi
8:53 am51 °FPartly sunny.16 mph63%29.81 "Hg10 mi
7:53 am50 °FPartly sunny.18 mph68%29.77 "Hg10 mi
6:53 am52 °FPassing clouds.15 mph69%29.72 "Hg10 mi
5:53 am54 °FPassing clouds.14 mph67%29.66 "Hg10 mi
5:20 am59 °FClear.21 mph60%29.65 "Hg10 mi
4:53 am63 °FClear.7 mph81%29.60 "Hg10 mi
3:53 am64 °FPassing clouds.3 mph78%29.58 "Hg10 mi
2:53 am64 °FPassing clouds.7 mph84%29.56 "Hg10 mi
1:53 am68 °FPassing clouds.8 mph73%29.58 "Hg10 mi
12:53 am70 °FPassing clouds.7 mph68%29.56 "Hg10 mi
11:53 pm
Thu, Feb 23
72 °FClear.7 mph59%29.56 "Hg10 mi
10:53 pm73 °FClear.14 mph55%29.52 "Hg10 mi
9:53 pm75 °FClear.17 mph52%29.52 "Hg10 mi
8:53 pm76 °FClear.15 mph48%29.50 "Hg10 mi
7:53 pm79 °FClear.18 mph42%29.49 "Hg10 mi
6:53 pm81 °FPassing clouds.20 mph35%29.47 "Hg10 mi
5:53 pm84 °FPassing clouds.17 mph29%29.46 "Hg10 mi
4:53 pm87 °FPassing clouds.23 mph22%29.46 "Hg10 mi
3:53 pm87 °FSunny.25 mph24%29.46 "Hg10 mi
2:53 pm87 °FPassing clouds.22 mph25%29.49 "Hg10 mi
1:53 pm87 °FPassing clouds.20 mph24%29.51 "Hg10 mi
Weather by CustomWeather, © 2017

See weather overviewHow to use our weather pages